Вернуться в каталог

COSMOS 877

АктивенВоенныеLEO
NORAD 9594·PAYLOAD·🇷🇺 Russia

Запущен Dec 7, 1976 с Plesetsk Cosmodrome

Loading…

Ближайшие Пролёты (ближайшие 24 часа)

TLE

СвежийSource: Space-Track

Эпоха: Sep 14, 2026, 10:25 UTC

1 09594U 76118G   26257.43459876  .00000011  00000-0  17323-3 0  9999
2 09594  74.0311 151.1085 0005608  76.1731  36.7350 12.51341253273418

Отслеживайте COSMOS 877 в реальном времени с AllMySat

Download on the App Store